[[{"header":{"parameterUnit":"m.s-1","parameterCategory":1,"la1":30.2992,"la2":30.254,"lo1":-89.0895,"lo2":-89.0443,"dy":0.0025,"dx":0.0025,"nx":19,"ny":19,"refTime":"2026-04-23T03:00:00:Z","depth":0,"parameterNumber":2,"parameterNumberName":"U-component_of_WINDS"},"data":[0,0,0,-2.6787,-2.6788,-2.6847,-2.6847,-2.6924,-2.6924,0,0,0,0,0,0,0,0,0,0,0,-2.6769,-2.6769,-2.6787,-2.6788,-2.6847,-2.6847,-2.6923,-2.6924,0,0,0,0,0,0,0,0,0,0,0,-2.6769,-2.6769,-2.677,-2.6788,-2.6847,-2.6847,-2.6923,-2.6879,0,0,0,0,0,0,0,0,0,0,-2.6821,-2.6804,-2.6769,-2.677,-2.6789,-2.6847,-2.6847,-2.6877,-2.6882,-2.6897,0,-2.691,0,-2.6918,-2.6929,-2.693,0,0,0,-2.6789,-2.68,-2.6816,-2.677,-2.6789,-2.6847,-2.6821,-2.6879,-2.6885,-2.6904,-2.6911,-2.6914,-2.692,-2.693,-2.693,-2.7016,-2.7017,0,0,-2.6785,-2.6779,-2.6812,-2.682,-2.681,-2.6819,-2.6822,-2.6883,-2.689,-2.6911,-2.6915,-2.6921,-2.693,-2.6931,-2.7016,-2.7017,0,0,0,-2.6776,-2.6777,-2.6792,-2.6817,-2.6827,-2.682,-2.6825,-2.6888,-2.6893,-2.6916,-2.6922,-2.6931,-2.6932,-2.7016,-2.7016,-2.7027,0,0,0,-2.6774,-2.6771,-2.679,-2.6787,-2.6826,-2.6858,-2.6828,-2.6889,-2.6896,-2.6921,-2.6931,-2.6932,-2.7015,-2.7016,-2.7026,-2.7033,0,0,0,-2.6765,-2.677,-2.6779,-2.6787,-2.6812,-2.6857,-2.6866,-2.6891,-2.6899,-2.693,-2.6933,-2.7015,-2.7016,-2.7025,-2.7031,-2.7053,0,0,0,-2.6754,-2.6788,-2.6779,-2.6819,-2.6811,-2.6864,-2.6866,-2.6906,-2.6933,-2.6931,-2.7015,-2.7016,-2.7025,-2.703,-2.7052,-2.7069,-2.7075,0,0,-2.6793,-2.6792,-2.6817,-2.681,-2.6863,-2.6856,-2.6911,-2.6942,-2.6952,-2.6995,-2.6997,-2.7027,-2.7031,-2.7053,-2.712,-2.7125,0,0,0,-2.6827,-2.6844,-2.686,-2.6885,-2.6911,-2.6933,-2.6957,-2.6969,-2.7006,-2.6972,-2.7042,-2.7045,-2.7058,-2.7066,-2.707,-2.7081,-2.702,-2.702,-2.702,-2.6871,-2.6882,-2.6922,-2.694,-2.6966,-2.6991,-2.7013,-2.7034,-2.7037,-2.7053,-2.7065,-2.7104,-2.7114,-2.7117,-2.7129,-2.7077,-2.7077,-2.7077,-2.7077,-2.6928,-2.6953,-2.6958,-2.6999,-2.701,-2.7045,-2.7073,-2.7074,-2.7109,-2.7096,-2.7108,-2.7091,-2.7123,-2.7133,-2.7078,-2.7078,-2.7078,-2.7078,-2.7078,-2.6956,-2.697,-2.6984,-2.7024,-2.7054,-2.7072,-2.7105,-2.7115,-2.7125,-2.7137,-2.715,-2.715,-2.715,-2.7143,-2.7144,-2.7144,-2.7144,-2.7144,-2.7144,-2.6978,-2.6994,-2.702,-2.7052,-2.707,-2.7096,-2.7124,-2.7143,-2.7167,-2.7172,-2.7172,-2.7173,-2.7125,-2.7111,-2.7146,-2.7146,-2.7145,-2.7145,-2.7145,-2.7027,-2.7018,-2.7058,-2.7077,-2.7115,-2.7144,-2.7158,-2.7196,-2.7214,-2.723,-2.7231,-2.7194,-2.7193,-2.719,-2.7178,-2.7229,-2.7229,-2.7229,-2.7229,-2.7049,-2.7051,-2.7094,-2.7124,-2.7154,-2.7171,-2.7218,-2.7241,-2.7264,-2.7276,-2.7271,-2.7258,-2.7254,-2.7256,-2.7251,-2.724,-2.7305,-2.7305,-2.7306,-2.7079,-2.7085,-2.7121,-2.7143,-2.7174,-2.7201,-2.7245,-2.728,-2.7305,-2.7309,-2.7285,-2.7282,-2.7261,-2.7254,-2.7254,-2.7246,-2.7226,0,0]},{"header":{"parameterUnit":"m.s-1","parameterCategory":1,"la1":30.2992,"la2":30.254,"lo1":-89.0895,"lo2":-89.0443,"dy":0.0025,"dx":0.0025,"nx":19,"ny":19,"refTime":"2026-04-23T03:00:00:Z","depth":0,"parameterNumber":3,"parameterNumberName":"V-component_of_WINDS"},"data":[0,0,0,5.2057,5.2057,5.2079,5.2079,5.2102,5.2102,0,0,0,0,0,0,0,0,0,0,0,5.2048,5.2048,5.2057,5.2057,5.2079,5.2079,5.2102,5.2102,0,0,0,0,0,0,0,0,0,0,0,5.2048,5.2048,5.2048,5.2057,5.2079,5.2079,5.2102,5.2087,0,0,0,0,0,0,0,0,0,0,5.2066,5.2056,5.2048,5.2048,5.2057,5.2079,5.2079,5.2086,5.2088,5.209,0,5.2092,0,5.2098,5.2103,5.2104,0,0,0,5.2059,5.2054,5.2063,5.2048,5.2058,5.2079,5.207,5.2087,5.2089,5.2092,5.2092,5.2093,5.2098,5.2104,5.2104,5.2114,5.2114,0,0,5.2057,5.205,5.2062,5.2064,5.2061,5.2069,5.207,5.2088,5.2088,5.2092,5.2094,5.2098,5.2104,5.2104,5.2114,5.2114,0,0,0,5.2053,5.2049,5.2057,5.2063,5.2067,5.207,5.2071,5.2087,5.209,5.2094,5.2099,5.2104,5.2104,5.2114,5.2114,5.2106,0,0,0,5.2052,5.2046,5.2056,5.2052,5.2067,5.2078,5.2069,5.2089,5.2091,5.2098,5.2104,5.2104,5.2114,5.2114,5.2107,5.2104,0,0,0,5.2047,5.2046,5.2048,5.2052,5.2061,5.2078,5.2082,5.209,5.2094,5.2104,5.2104,5.2114,5.2114,5.2107,5.2104,5.2105,0,0,0,5.2039,5.204,5.2048,5.2051,5.2061,5.2073,5.2082,5.2091,5.2098,5.2104,5.2114,5.2114,5.2107,5.2104,5.2105,5.2104,5.2103,0,0,5.2036,5.2039,5.2042,5.205,5.2059,5.207,5.2078,5.2091,5.2098,5.2108,5.2108,5.2107,5.2104,5.2105,5.21,5.2099,0,0,0,5.2038,5.204,5.2044,5.2052,5.2063,5.2072,5.2085,5.209,5.2099,5.2102,5.2107,5.2106,5.2107,5.2106,5.2106,5.2107,5.2113,5.2113,5.2113,5.2022,5.2033,5.2038,5.2052,5.2059,5.2074,5.208,5.2089,5.2096,5.2097,5.21,5.2096,5.2096,5.2095,5.2096,5.2101,5.2101,5.2101,5.2101,5.2019,5.2024,5.2036,5.2045,5.2056,5.2063,5.2077,5.2082,5.209,5.2094,5.2096,5.2099,5.2094,5.2096,5.21,5.21,5.21,5.21,5.21,5.201,5.2014,5.2022,5.2035,5.2044,5.2058,5.2066,5.2075,5.2083,5.2085,5.2089,5.2089,5.2091,5.2086,5.2086,5.2086,5.2086,5.2086,5.2086,5.1997,5.2006,5.2013,5.2026,5.2033,5.2044,5.2059,5.2066,5.2075,5.2082,5.2082,5.2089,5.2092,5.2093,5.2086,5.2086,5.2086,5.2086,5.2086,5.199,5.1994,5.2003,5.2011,5.2028,5.2037,5.205,5.2063,5.207,5.2073,5.2081,5.2082,5.2085,5.2086,5.2086,5.2079,5.2079,5.2079,5.2079,5.1982,5.1986,5.1999,5.201,5.2022,5.2035,5.2045,5.2058,5.2071,5.2076,5.2078,5.208,5.208,5.2083,5.2084,5.2085,5.2077,5.2077,5.2077,5.1978,5.1984,5.1991,5.2006,5.2021,5.2033,5.2044,5.2055,5.207,5.2077,5.208,5.208,5.2083,5.2083,5.2089,5.209,5.2091,0,0]}]]